Regional Weather Roundup
Issued by NWS Goodland, KS

Home | Current Version | Previous Version | Text Only | Print | Product List | Glossary Off
Versions: 1 2 3 4 5 6 7 8 9 10 11 12 13 14 15 16 17 18 19 20 21 22 23 24 25 26 27 28 29 30 31 32 33 34 35 36 37 38 39 40 41 42 43 44 45 46 47 48 49 50

000
ASUS43 KGLD 232159
RWRGLD

GOODLAND FORECAST AREA HOURLY WEATHER ROUNDUP
NATIONAL WEATHER SERVICE GOODLAND KS
400 PM MDT TUE SEP 23 2014

...OFFICIAL OBSERVATIONS...

CITY           SKY/WX    TMP DP  RH WIND       PRES   REMARKS
GOODLAND KS    MOSUNNY   84  52  33 NE3       30.03S
HILL CITY KS   MOSUNNY   84  60  44 S5        29.96F
IMPERIAL NEB   MOSUNNY   87  44  22 NW15      29.96F
MCCOOK NEB     MOSUNNY   83  55  38 S6        29.96S
AKRON CO       MOSUNNY   78  49  35 N13G21    30.08S
BURLINGTON CO  PTSUNNY   82  50  32 SE10      30.05S
LIMON CO       PTSUNNY   78  42  27 N9        30.12S
$$

...UNOFFICIAL OBSERVATIONS...

CITY           SKY/WX    TMP DP  RH WIND       PRES   REMARKS
COLBY KS       SUNNY     84  55  37 CALM      30.00F
GOVE KS          N/A     85  32  15 MISG        N/A
NORTON KS      SUNNY     84  55  37 SE9       29.96S
SHARON SPRINGS   N/A     86  54  33 NE10        N/A
WAKEENEY KS      N/A     85  58  38 MISG        N/A
KIT CARSON CO    N/A     77  54  44 CALM        N/A
YUMA CO          N/A     80  46  29 W5          N/A
$$



USA.gov is the U.S. government's official web portal to all federal, state and local government web resources and services.